Powrót do katalogu

ONEWEB-0376

AktywnyŁącznośćPO
NORAD 49302·PAYLOAD·🇬🇧 United Kingdom

Wystrzelony Oct 14, 2021 z Vostochny Cosmodrome

Loading…

Następne Przeloty (najbliższe 24 godziny)

TLE

ŚwieżeSource: CelesTrak SupGP

Epoka: Sep 14, 2026, 12:35 UTC

1 49302C 21090Z   26257.52446019  .00001603  00000+0  40097-2 0  2571
2 49302  87.9107 287.1723 0001987  88.7980  25.3144 13.19725335    16

Śledź ONEWEB-0376 w czasie rzeczywistym z AllMySat

Download on the App Store